Location: Potomac Astrometric Observatory
(39.0475°N, 77.2064°W)
Time: 07:57:32
(UTC-04:00)

Envisat - Pass Details

Date: 23 March 2019
Orbit: 764 x 766 km, 98.2° (Epoch: 24 April)

Event Time Altitude Azimuth Distance (km) Brightness Sun altitude
Rises 20:39:18 0° 196° (SSW) 3,218 6.3 -15.3°
Reaches altitude 10° 20:41:56 10° 208° (SSW) 2,296 5.6 -15.8°
Maximum altitude 20:46:09 26° 265° (W) 1,467 5.2 -16.6°
Drops below altitude 10° 20:50:24 10° 322° (NW) 2,309 6.3 -17.4°
Sets 20:53:04 0° 335° (NNW) 3,240 6.9 -17.9°
